Weather History for Ouarzazate, Morocco

Change the Weather History Date:

Friday, February 22, 2013

  Actual Average Record
Temperature  
Mean Temperature 56 °F -  
Max Temperature 73 °F 71 °F - ()
Min Temperature 38 °F 44 °F - ()
Degree Days  
Heating Degree Days 10    
Growing Degree Days 6 (Base 50)    
Moisture  
Dew Point 24 °F    
Average Humidity 30    
Maximum Humidity 49    
Minimum Humidity 5    
Precipitation  
Precipitation 0.00 in 0.01 in - ()
Sea Level Pressure  
Sea Level Pressure 30.02 in    
Wind  
Wind Speed 4 mph ()    
Max Wind Speed 23 mph    
Max Gust Speed -    
Visibility 9.8 miles    
Events      
T = Trace of Precipitation, MM = Missing Value Source: Averaged Metar Reports

Daily Weather History Graph

Daily Weather History Graph

Search for Another Location

Airport:

Trip Planner

Search our weather history database for the weather conditions in past years. The results will help you decide how hot, cold, wet, or windy it might be!

Date:

Astronomy

Feb. 22, 2013 Rise Set
Actual Time 7:01 AM WET 6:20 PM WET
Civil Twilight 6:37 AM WET 6:45 PM WET
Nautical Twilight 6:09 AM WET 7:13 PM WET
Astronomical Twilight 5:41 AM WET 7:41 PM WET
Moon 3:27 PM WET (2/22) 4:29 AM WET (2/22)
Length of Visible Light 12h 08m
Length of Day
11h 19m
Waxing Gibbous, 89% of the Moon is Illuminated
Feb 22
Waxing Gibbous
Feb 25
Full
Mar 4
Last Quarter
Mar 11
New
Mar 19
First Quarter

Hourly Weather History & Observations

Time (WET) Temp. Windchill Dew Point Humidity Pressure Visibility Wind Dir Wind Speed Gust Speed Precip Events Conditions
12:00 AM 53 °F - 29 °F 27%  in 12 mi SW 3.5 mph - -  
12:00 AM 53.6 °F - 28.4 °F 38% 30.09 in - Variable 3.5 mph - N/A   Clear
1:00 AM 48.2 °F - 26.6 °F 43% 30.06 in - West 5.8 mph - N/A   Clear
2:00 AM 48.2 °F - 28.4 °F 46% 30.04 in - SW 2.3 mph - N/A   Clear
3:00 AM 42 °F - 24 °F 36%  in 12 mi Calm Calm - -  
3:00 AM 42.8 °F - 23.0 °F 46% 30.04 in - Calm Calm - N/A   Clear
4:00 AM 39.2 °F - 21.2 °F 49% 30.04 in - Calm Calm - N/A   Clear
5:00 AM 41.0 °F - 23.0 °F 49% 30.06 in - Variable 1.2 mph - N/A   Clear
6:00 AM 40 °F - 20 °F 31%  in 12 mi WNW 2.3 mph - -  
6:00 AM 39.2 °F - 19.4 °F 45% 30.06 in - Variable 2.3 mph - N/A   Clear
7:00 AM 39.2 °F - 17.6 °F 42% 30.06 in - Calm Calm - N/A   Clear
8:00 AM 39.2 °F 35.9 °F 17.6 °F 42% 30.09 in - WNW 4.6 mph - N/A   Clear
9:00 AM 47 °F - 26 °F 31%  in 12 mi East 2.3 mph - -   Clear
9:00 AM 48.2 °F - 26.6 °F 43% 30.09 in - East 2.3 mph - N/A   Clear
10:00 AM 51.8 °F - 30.2 °F 44% 30.09 in - ENE 1.2 mph - N/A   Clear
11:00 AM 55.4 °F - 32.0 °F 41% 30.09 in - ESE 2.3 mph - N/A   Clear
12:00 PM 63 °F - 32 °F 19%  in 12 mi SW 1.2 mph - -   Clear
12:00 PM 62.6 °F - 32.0 °F 32% 30.04 in - SW 1.2 mph - N/A   Clear
1:00 PM 66.2 °F - 30.2 °F 26% 30.04 in - West 1.2 mph - N/A   Clear
2:00 PM 68.0 °F - 17.6 °F 15% 29.98 in - South 5.8 mph - N/A   Clear
3:00 PM 72 °F - 20 °F 6%  in 12 mi SSE 6.9 mph - -   Clear
3:00 PM 71.6 °F - 21.2 °F 15% 29.95 in - SSE 6.9 mph - N/A   Clear
4:00 PM 73.4 °F - 19.4 °F 13% 29.92 in - WNW 4.6 mph - N/A   Clear
5:00 PM 71.6 °F - 15.8 °F 12% 29.92 in - NNW 8.1 mph - N/A   Clear
6:00 PM 70 °F - 13 °F 5%  in 12 mi WNW 8.1 mph - -   Clear
6:00 PM 69.8 °F - 14.0 °F 12% 29.92 in - WNW 8.1 mph - N/A   Clear
7:00 PM 62.6 °F - 24.8 °F 24% 29.95 in 6.2 mi NW 23.0 mph - N/A   Scattered Clouds
8:00 PM 60.8 °F - 24.8 °F 25% 29.95 in 6.2 mi WNW 20.7 mph - N/A   Scattered Clouds
9:00 PM 58 °F - 24 °F 16%  in 12 mi WNW 8.1 mph - -   Scattered Clouds
9:00 PM 59.0 °F - 24.8 °F 27% 29.98 in 6.2 mi West 8.1 mph - N/A   Scattered Clouds
10:00 PM 57.2 °F - 24.8 °F 29% 29.98 in 6.2 mi West 21.9 mph - N/A   Scattered Clouds
11:00 PM 55.4 °F - 26.6 °F 33% 29.98 in 6.2 mi WNW 13.8 mph - N/A   Scattered Clouds